GPS BIIR-2 (PRN 13) (24876 NORAD) Tracking and Keplerian Element Data

This shows tracking and keplerian element data for the satellite.

Feedback or suggestion? Click here.




ElementValue
Catalog24876
NameGPS BIIR-2 (PRN 13)
Epoch Orbit20836
Epoch Day354.21137643
Epoch Year2025
RAAN105.5767
Inclination55.8989
Eccentricity0.0096811
Argument of Perigee56.9717
Mean Anonmoly303.9301
Mean Motion2.0056375
Decay Rate-8E-08
L11 24876U 97035A 25354.21137643 -.00000008 00000+0 00000+0 0 9994
L22 24876 55.8989 105.5767 0096811 56.9717 303.9301 2.00563750208360



Live tracking and technical data element details for GPS BIIR-2 (PRN 13) (NORAD 24876). GPS BIIR-2 (PRN 13) can be tracked NOW for your location showing map with azimuth and elevation plus other details from your city location.







IsCatalogInMostPopularTable: catalog: 24876, numindb: 969
Update: records affected: 1



GetName: 24876 GPS BIIR-2 (PRN 13)

Hit Count: updated at: Sat, 07 Mar 2026 03:44:26 GMT